User: anonymous   Login
Location: Unspecified
(43.4680°N, 87.1740°E)
Time: 02:37:51
(UTC+00:00)
Language:

Cosmos 1356 Rocket - Orbit

View from above orbital plane
View from above orbital plane
View from above satellite
View from above satellite

Ground track
Ground track

The orbit data is extracted from the following two-line orbital elements,

1 13154U 82039B   21337.79286307  .00000527  00000-0  40906-4 0  9991
2 13154  81.1831 188.5587 0040365  21.9139 338.3794 14.99039751147965
Epoch (UTC): 03 December 2021 19:01:43
Eccentricity: 0.0040365
inclination: 81.1831°
perigee height: 542 km
apogee height: 598 km
right ascension of ascending node: 188.5587°
argument of perigee: 21.9139°
revolutions per day: 14.99039751
mean anomaly at epoch: 338.3794°
orbit number at epoch: 14796

The dashed part of the orbit path shows where the satellite is in the earth's shadow,  

DLR